Погода в Хилкове

Россия / Самарская область     53°28′29″N   50°56′28″E
темп.,
°C
ветер,
м/с
пор.,
м/с
влажн.,
%
обл.,
%
осадки,
мм/ч
давл.,
гПа
погр.,
м
26 февраля, пт
пт2601:00−17ююв61196100 0.6 1020548
04:00−16юв61195100 0.9 1019477
07:00−15юв5109599 0.3 1018410
10:00−14юв6109499 0.4 1018455
13:00−12юв6991100 0.1 1018565
16:00−12юв61092100 0.1 1017549
19:00−13юв61294100 0.1 1014467
22:00−13ююв81495100 0.4 1011435
27 февраля, сб
сб2701:00−10ююв91595100 2.9 1005518
04:00−8ююв61195100 8.0 1002419
07:00−6ююв3597100 0.6 1000181
10:00−2ююз3698100 0.9 1000220
13:00+1зюз4910092 0.3 999472
16:000зюз5910096 0.4 999470
19:000юз4898100 0.2 999389
22:000юз489898 0.4 999301
28 февраля, вс
вс2801:00−1юз489899 0.8 998358
04:00−3юз369899 1.3 999157
07:00−3з2498100 0.7 999104
10:00−5зсз3596100 1.3 1001179
13:00−6ссз579597 0.3 1003270
16:00−9ссз7119295 0.4 1006359
19:00−11ссз6129289 0.1 1008380
22:00−13ссз5119392 0.1 1011347
1 марта, пн
пн101:00−15ссз5109595 0.0 1013264
04:00−18ссз4109585 0.1 1015203
07:00−20ссз4109617 0.0 1017194
10:00−19ссз589310 0.0 1019250
13:00−17ссз589326 0.0 1021303
16:00−16ссз479347 0.0 1021335
19:00−19ссз349755 0.0 102359
22:00−20ссз239844 0.0 102421
2 марта, вт
вт201:00−21сз23980 0.0 102320
04:00−23з22990 0.0 102220
07:00−22ююз23970 0.0 102120
10:00−18ююз589533 0.0 1019226
13:00−13ююз61094100 0.0 1016327
16:00−10ююз71294100 0.4 1013475
19:00−9юз61295100 1.3 1010479
22:00−7ююз51095100 1.9 1009367